SBAR

Details ICAO SBAR (AJU)
Name SANTA MARIA
Region Brazil
Timezone America/Maceio (UTC-3.0)
Plans Departing 54
Arriving 51
Stats Elevation 23 ft / 7 m (AMSL)
Location -10.984000° -37.070333°
Runways 1
Magnetic Variation 23.050° W
Sunrise 2018-05-27 08:40:36 UTC / 2018-05-27 05:40:36 Local
Sunset 2018-05-27 20:13:11 UTC / 2018-05-27 17:13:11 Local
Advertisement - Login to hide

Runways

ID Width Length Bearing (true) Bearing (mag) Surface Threshold Offset Overrun Length
11 148 ft / 45 m 7,228 ft / 2,203 m 91.93° 114.98° Asphalt 0 ft / 0 m 200 ft / 61 m
29 148 ft / 45 m 7,228 ft / 2,203 m 271.92° 294.97° Asphalt 0 ft / 0 m 200 ft / 61 m

Map

Weather


0- 5 10 15 20 25 30 35+ Temperature / ° C

Clouds and Precipitation
Forecast for 2018-05-27 12:00 UTC. Updated 3 hours ago

Ground ~20,000 ft ~40,000 ft Winds

METAR

SBAR 271300Z 08009KT 9999 VCSH BKN017 FEW019TCU 27/22 Q1017

TAF

TAF SBAR 271000Z 2712/2724 13012KT 8000SCT018 TX29/2715Z TN27/2723Z BECMG 2716/2717 15010KT RMK PEU

Frequencies

Approach 120.30 MHz ARACAJU APP
Warning: Do not use this data for real-world aviation or navigation. No guarantee of current accuracy is given.